Year,Month,Day,Hour,Minute,Value (Times are PST for temperature in C)
2011,08,17,00,00,10.60
2011,08,17,00,01,10.60
2011,08,17,00,02,10.60
2011,08,17,00,03,10.60
2011,08,17,00,04,10.60
2011,08,17,00,05,10.50
2011,08,17,00,06,10.40
2011,08,17,00,07,10.40
2011,08,17,00,08,10.40
2011,08,17,00,09,10.40
2011,08,17,00,10,10.40
2011,08,17,00,11,10.40
2011,08,17,00,12,10.40
2011,08,17,00,13,10.40
2011,08,17,00,14,10.40
2011,08,17,00,15,10.40
2011,08,17,00,16,10.30
2011,08,17,00,17,10.30
2011,08,17,00,18,10.30
2011,08,17,00,19,10.30
2011,08,17,00,20,10.30
2011,08,17,00,21,10.30
2011,08,17,00,22,10.30
2011,08,17,00,23,10.30
2011,08,17,00,24,10.20
2011,08,17,00,25,10.20
2011,08,17,00,26,10.20
2011,08,17,00,27,10.20
2011,08,17,00,28,10.20
2011,08,17,00,29,10.20
2011,08,17,00,30,10.20
2011,08,17,00,31,10.20
2011,08,17,00,32,10.20
2011,08,17,00,33,10.10
2011,08,17,00,34,10.10
2011,08,17,00,35,10.10
2011,08,17,00,36,10.10
2011,08,17,00,37,10.10
2011,08,17,00,38,10.10
2011,08,17,00,39,10.10
2011,08,17,00,40,10.10
2011,08,17,00,41,10.10
2011,08,17,00,42,10.10
2011,08,17,00,43,10.10
2011,08,17,00,44,10.10
2011,08,17,00,45,9.90
2011,08,17,00,46,9.90
2011,08,17,00,47,9.90
2011,08,17,00,48,9.90
2011,08,17,00,49,9.90
2011,08,17,00,50,9.90
2011,08,17,00,51,9.90
2011,08,17,00,52,9.80
2011,08,17,00,53,9.80
2011,08,17,00,54,9.80
2011,08,17,00,55,9.80
2011,08,17,00,56,9.80
2011,08,17,00,57,9.80
2011,08,17,00,58,9.80
2011,08,17,00,59,9.80
2011,08,17,01,00,9.80
2011,08,17,01,01,9.70
2011,08,17,01,02,9.70
2011,08,17,01,03,9.70
2011,08,17,01,04,9.70
2011,08,17,01,05,9.70
2011,08,17,01,06,9.70
2011,08,17,01,07,9.70
2011,08,17,01,08,9.70
2011,08,17,01,09,9.70
2011,08,17,01,10,9.70
2011,08,17,01,11,9.70
2011,08,17,01,12,9.70
2011,08,17,01,13,9.70
2011,08,17,01,14,9.70
2011,08,17,01,15,9.70
2011,08,17,01,16,9.70
2011,08,17,01,17,9.70
2011,08,17,01,18,9.70
2011,08,17,01,19,9.70
2011,08,17,01,20,9.70
2011,08,17,01,21,9.70
2011,08,17,01,22,9.70
2011,08,17,01,23,9.70
2011,08,17,01,24,9.70
2011,08,17,01,25,9.70
2011,08,17,01,26,9.70
2011,08,17,01,27,9.60
2011,08,17,01,28,9.60
2011,08,17,01,29,9.60
2011,08,17,01,30,9.60
2011,08,17,01,31,9.60
2011,08,17,01,32,9.60
2011,08,17,01,33,9.60
2011,08,17,01,34,9.60
2011,08,17,01,35,9.60
2011,08,17,01,36,9.60
2011,08,17,01,37,9.60
2011,08,17,01,38,9.50
2011,08,17,01,39,9.50
2011,08,17,01,40,9.50
2011,08,17,01,41,9.50
2011,08,17,01,42,9.50
2011,08,17,01,43,9.50
2011,08,17,01,44,9.40
2011,08,17,01,45,9.40
2011,08,17,01,46,9.40
2011,08,17,01,47,9.40
2011,08,17,01,48,9.30
2011,08,17,01,49,9.30
2011,08,17,01,50,9.30
2011,08,17,01,51,9.30
2011,08,17,01,52,9.20
2011,08,17,01,53,9.20
2011,08,17,01,54,9.20
2011,08,17,01,55,9.20
2011,08,17,01,56,9.20
2011,08,17,01,57,9.20
2011,08,17,01,58,9.20
2011,08,17,01,59,9.20
2011,08,17,02,00,9.10
2011,08,17,02,01,9.10
2011,08,17,02,02,9.10
2011,08,17,02,03,9.00
2011,08,17,02,04,9.00
2011,08,17,02,05,9.00
2011,08,17,02,06,9.00
2011,08,17,02,07,9.00
2011,08,17,02,08,8.90
2011,08,17,02,09,8.90
2011,08,17,02,10,8.90
2011,08,17,02,11,8.90
2011,08,17,02,12,8.90
2011,08,17,02,13,8.80
2011,08,17,02,14,8.80
2011,08,17,02,15,8.80
2011,08,17,02,16,8.80
2011,08,17,02,17,8.90
2011,08,17,02,18,8.90
2011,08,17,02,19,8.90
2011,08,17,02,20,8.90
2011,08,17,02,21,8.90
2011,08,17,02,22,8.90
2011,08,17,02,23,8.90
2011,08,17,02,24,8.90
2011,08,17,02,25,8.90
2011,08,17,02,26,8.80
2011,08,17,02,27,8.80
2011,08,17,02,28,8.80
2011,08,17,02,29,8.80
2011,08,17,02,30,8.80
2011,08,17,02,31,8.70
2011,08,17,02,32,8.70
2011,08,17,02,33,8.70
2011,08,17,02,34,8.70
2011,08,17,02,35,8.70
2011,08,17,02,36,8.70
2011,08,17,02,37,8.70
2011,08,17,02,38,8.70
2011,08,17,02,39,8.70
2011,08,17,02,40,8.60
2011,08,17,02,41,8.60
2011,08,17,02,42,8.60
2011,08,17,02,43,8.60
2011,08,17,02,44,8.60
2011,08,17,02,45,8.60
2011,08,17,02,46,8.60
2011,08,17,02,47,8.60
2011,08,17,02,48,8.50
2011,08,17,02,49,8.50
2011,08,17,02,50,8.50
2011,08,17,02,51,8.50
2011,08,17,02,52,8.50
2011,08,17,02,53,8.50
2011,08,17,02,54,8.50
2011,08,17,02,55,8.50
2011,08,17,02,56,8.50
2011,08,17,02,57,8.50
2011,08,17,02,58,8.50
2011,08,17,02,59,8.50
2011,08,17,03,00,8.40
2011,08,17,03,01,8.40
2011,08,17,03,02,8.40
2011,08,17,03,03,8.40
2011,08,17,03,04,8.40
2011,08,17,03,05,8.30
2011,08,17,03,06,8.30
2011,08,17,03,07,8.30
2011,08,17,03,08,8.30
2011,08,17,03,09,8.20
2011,08,17,03,10,8.20
2011,08,17,03,11,8.20
2011,08,17,03,12,8.20
2011,08,17,03,13,8.20
2011,08,17,03,14,8.20
2011,08,17,03,15,8.20
2011,08,17,03,16,8.20
2011,08,17,03,17,8.20
2011,08,17,03,18,8.20
2011,08,17,03,19,8.20
2011,08,17,03,20,8.20
2011,08,17,03,21,8.20
2011,08,17,03,22,8.20
2011,08,17,03,23,8.20
2011,08,17,03,24,8.20
2011,08,17,03,25,8.20
2011,08,17,03,26,8.20
2011,08,17,03,27,8.20
2011,08,17,03,28,8.20
2011,08,17,03,29,8.20
2011,08,17,03,30,8.20
2011,08,17,03,31,8.20
2011,08,17,03,32,8.20
2011,08,17,03,33,8.20
2011,08,17,03,34,8.20
2011,08,17,03,35,8.20
2011,08,17,03,36,8.10
2011,08,17,03,37,8.10
2011,08,17,03,38,8.10
2011,08,17,03,39,8.10
2011,08,17,03,40,8.10
2011,08,17,03,41,8.00
2011,08,17,03,42,8.00
2011,08,17,03,43,8.00
2011,08,17,03,44,8.00
2011,08,17,03,45,8.00
2011,08,17,03,46,8.00
2011,08,17,03,47,7.90
2011,08,17,03,48,7.90
2011,08,17,03,49,7.90
2011,08,17,03,50,7.90
2011,08,17,03,51,7.90
2011,08,17,03,52,7.90
2011,08,17,03,53,7.90
2011,08,17,03,54,7.90
2011,08,17,03,55,7.90
2011,08,17,03,56,7.90
2011,08,17,03,57,7.80
2011,08,17,03,58,7.80
2011,08,17,03,59,7.80
2011,08,17,04,00,7.80
2011,08,17,04,01,7.80
2011,08,17,04,02,7.80
2011,08,17,04,03,7.80
2011,08,17,04,04,7.80
2011,08,17,04,05,7.80
2011,08,17,04,06,7.80
2011,08,17,04,07,7.70
2011,08,17,04,08,7.70
2011,08,17,04,09,7.70
2011,08,17,04,10,7.70
2011,08,17,04,11,7.70
2011,08,17,04,12,7.70
2011,08,17,04,13,7.70
2011,08,17,04,14,7.70
2011,08,17,04,15,7.80
2011,08,17,04,16,7.80
2011,08,17,04,17,7.80
2011,08,17,04,18,7.80
2011,08,17,04,19,7.80
2011,08,17,04,20,7.80
2011,08,17,04,21,7.80
2011,08,17,04,22,7.80
2011,08,17,04,23,7.80
2011,08,17,04,24,7.80
2011,08,17,04,25,7.80
2011,08,17,04,26,7.80
2011,08,17,04,27,7.80
2011,08,17,04,28,7.80
2011,08,17,04,29,7.80
2011,08,17,04,30,7.80
2011,08,17,04,31,7.80
2011,08,17,04,32,7.80
2011,08,17,04,33,7.80
2011,08,17,04,34,7.80
2011,08,17,04,35,7.80
2011,08,17,04,36,7.80
2011,08,17,04,37,7.80
2011,08,17,04,38,7.80
2011,08,17,04,39,7.80
2011,08,17,04,40,7.80
2011,08,17,04,41,7.80
2011,08,17,04,42,7.80
2011,08,17,04,43,7.80
2011,08,17,04,44,7.80
2011,08,17,04,45,7.80
2011,08,17,04,46,7.80
2011,08,17,04,47,7.80
2011,08,17,04,48,7.80
2011,08,17,04,49,7.80
2011,08,17,04,50,7.70
2011,08,17,04,51,7.70
2011,08,17,04,52,7.80
2011,08,17,04,53,7.80
2011,08,17,04,54,7.80
2011,08,17,04,55,7.80
2011,08,17,04,56,7.80
2011,08,17,04,57,7.80
2011,08,17,04,58,7.80
2011,08,17,04,59,7.80
2011,08,17,05,00,7.80
2011,08,17,05,01,7.80
2011,08,17,05,02,7.80
2011,08,17,05,03,7.80
2011,08,17,05,04,7.80
2011,08,17,05,05,7.80
2011,08,17,05,06,7.70
2011,08,17,05,07,7.70
2011,08,17,05,08,7.70
2011,08,17,05,09,7.70
2011,08,17,05,10,7.70
2011,08,17,05,11,7.70
2011,08,17,05,12,7.70
2011,08,17,05,13,7.70
2011,08,17,05,14,7.70
2011,08,17,05,15,7.70
2011,08,17,05,16,7.70
2011,08,17,05,17,7.70
2011,08,17,05,18,7.70
2011,08,17,05,19,7.70
2011,08,17,05,20,7.70
2011,08,17,05,21,7.70
2011,08,17,05,22,7.70
2011,08,17,05,23,7.70
2011,08,17,05,24,7.70
2011,08,17,05,25,7.70
2011,08,17,05,26,7.70
2011,08,17,05,27,7.60
2011,08,17,05,28,7.60
2011,08,17,05,29,7.60
2011,08,17,05,30,7.60
2011,08,17,05,31,7.60
2011,08,17,05,32,7.60
2011,08,17,05,33,7.60
2011,08,17,05,34,7.60
2011,08,17,05,35,7.60
2011,08,17,05,36,7.60
2011,08,17,05,37,7.60
2011,08,17,05,38,7.60
2011,08,17,05,39,7.60
2011,08,17,05,40,7.60
2011,08,17,05,41,7.50
2011,08,17,05,42,7.50
2011,08,17,05,43,7.50
2011,08,17,05,44,7.50
2011,08,17,05,45,7.50
2011,08,17,05,46,7.50
2011,08,17,05,47,7.50
2011,08,17,05,48,7.50
2011,08,17,05,49,7.50
2011,08,17,05,50,7.40
2011,08,17,05,51,7.40
2011,08,17,05,52,7.40
2011,08,17,05,53,7.40
2011,08,17,05,54,7.40
2011,08,17,05,55,7.40
2011,08,17,05,56,7.40
2011,08,17,05,57,7.40
2011,08,17,05,58,7.40
2011,08,17,05,59,7.40
2011,08,17,06,00,7.40
2011,08,17,06,01,7.40
2011,08,17,06,02,7.40
2011,08,17,06,03,7.40
2011,08,17,06,04,7.40
2011,08,17,06,05,7.40
2011,08,17,06,06,7.40
2011,08,17,06,07,7.40
2011,08,17,06,08,7.40
2011,08,17,06,09,7.50
2011,08,17,06,10,7.50
2011,08,17,06,11,7.50
2011,08,17,06,12,7.50
2011,08,17,06,13,7.50
2011,08,17,06,14,7.50
2011,08,17,06,15,7.50
2011,08,17,06,16,7.50
2011,08,17,06,17,7.50
2011,08,17,06,18,7.50
2011,08,17,06,19,7.50
2011,08,17,06,20,7.50
2011,08,17,06,21,7.50
2011,08,17,06,22,7.50
2011,08,17,06,23,7.50
2011,08,17,06,24,7.50
2011,08,17,06,25,7.50
2011,08,17,06,26,7.50
2011,08,17,06,27,7.50
2011,08,17,06,28,7.50
2011,08,17,06,29,7.50
2011,08,17,06,30,7.40
2011,08,17,06,31,7.40
2011,08,17,06,32,7.40
2011,08,17,06,33,7.40
2011,08,17,06,34,7.40
2011,08,17,06,35,7.40
2011,08,17,06,36,7.30
2011,08,17,06,37,7.30
2011,08,17,06,38,7.30
2011,08,17,06,39,7.30
2011,08,17,06,40,7.30
2011,08,17,06,41,7.30
2011,08,17,06,42,7.30
2011,08,17,06,43,7.30
2011,08,17,06,44,7.30
2011,08,17,06,45,7.30
2011,08,17,06,46,7.30
2011,08,17,06,47,7.30
2011,08,17,06,48,7.30
2011,08,17,06,49,7.30
2011,08,17,06,50,7.20
2011,08,17,06,51,7.20
2011,08,17,06,52,7.20
2011,08,17,06,53,7.20
2011,08,17,06,54,7.20
2011,08,17,06,55,7.20
2011,08,17,06,56,7.20
2011,08,17,06,57,7.20
2011,08,17,06,58,7.20
2011,08,17,06,59,7.20
2011,08,17,07,00,7.20
2011,08,17,07,01,7.20
2011,08,17,07,02,7.20
2011,08,17,07,03,7.20
2011,08,17,07,04,7.30
2011,08,17,07,05,7.30
2011,08,17,07,06,7.30
2011,08,17,07,07,7.30
2011,08,17,07,08,7.30
2011,08,17,07,09,7.30
2011,08,17,07,10,7.40
2011,08,17,07,11,7.40
2011,08,17,07,12,7.40
2011,08,17,07,13,7.40
2011,08,17,07,14,7.50
2011,08,17,07,15,7.50
2011,08,17,07,16,7.50
2011,08,17,07,17,7.60
2011,08,17,07,18,7.60
2011,08,17,07,19,7.60
2011,08,17,07,20,7.70
2011,08,17,07,21,7.70
2011,08,17,07,22,7.80
2011,08,17,07,23,7.80
2011,08,17,07,24,7.90
2011,08,17,07,25,8.00
2011,08,17,07,26,8.10
2011,08,17,07,27,8.20
2011,08,17,07,28,8.30
2011,08,17,07,29,8.40
2011,08,17,07,30,8.50
2011,08,17,07,31,8.50
2011,08,17,07,32,8.70
2011,08,17,07,33,8.70
2011,08,17,07,34,8.80
2011,08,17,07,35,8.90
2011,08,17,07,36,9.00
2011,08,17,07,37,9.00
2011,08,17,07,38,9.10
2011,08,17,07,39,9.10
2011,08,17,07,40,9.20
2011,08,17,07,41,9.20
2011,08,17,07,42,9.20
2011,08,17,07,43,9.20
2011,08,17,07,44,9.20
2011,08,17,07,45,9.30
2011,08,17,07,46,9.40
2011,08,17,07,47,9.50
2011,08,17,07,48,9.60
2011,08,17,07,49,9.70
2011,08,17,07,50,9.70
2011,08,17,07,51,9.80
2011,08,17,07,52,9.90
2011,08,17,07,53,10.00
2011,08,17,07,54,10.20
2011,08,17,07,55,10.30
2011,08,17,07,56,10.50
2011,08,17,07,57,10.60
2011,08,17,07,58,10.70
2011,08,17,07,59,10.90
2011,08,17,08,00,11.00
2011,08,17,08,01,11.10
2011,08,17,08,02,11.30
2011,08,17,08,03,11.40
2011,08,17,08,04,11.60
2011,08,17,08,05,11.70
2011,08,17,08,06,11.80
2011,08,17,08,07,12.00
2011,08,17,08,08,12.10
2011,08,17,08,09,12.20
2011,08,17,08,10,12.30
2011,08,17,08,11,12.50
2011,08,17,08,12,12.50
2011,08,17,08,13,12.60
2011,08,17,08,14,12.60
2011,08,17,08,15,12.70
2011,08,17,08,16,12.80
2011,08,17,08,17,12.80
2011,08,17,08,18,12.90
2011,08,17,08,19,13.00
2011,08,17,08,20,13.10
2011,08,17,08,21,13.30
2011,08,17,08,22,13.30
2011,08,17,08,23,13.40
2011,08,17,08,24,13.50
2011,08,17,08,25,13.60
2011,08,17,08,26,13.70
2011,08,17,08,27,13.80
2011,08,17,08,28,13.90
2011,08,17,08,29,14.00
2011,08,17,08,30,14.10
2011,08,17,08,31,14.20
2011,08,17,08,32,14.40
2011,08,17,08,33,14.50
2011,08,17,08,34,14.60
2011,08,17,08,35,14.70
2011,08,17,08,36,14.80
2011,08,17,08,37,14.80
2011,08,17,08,38,15.00
2011,08,17,08,39,15.10
2011,08,17,08,40,15.20
2011,08,17,08,41,15.30
2011,08,17,08,42,15.30
2011,08,17,08,43,15.40
2011,08,17,08,44,15.50
2011,08,17,08,45,15.50
2011,08,17,08,46,15.60
2011,08,17,08,47,15.70
2011,08,17,08,48,15.80
2011,08,17,08,49,15.80
2011,08,17,08,50,15.90
2011,08,17,08,51,16.00
2011,08,17,08,52,16.10
2011,08,17,08,53,16.20
2011,08,17,08,54,16.30
2011,08,17,08,55,16.40
2011,08,17,08,56,16.50
2011,08,17,08,57,16.70
2011,08,17,08,58,16.80
2011,08,17,08,59,16.90
2011,08,17,09,00,17.10
2011,08,17,09,01,17.30
2011,08,17,09,02,17.30
2011,08,17,09,03,17.40
2011,08,17,09,04,17.40
2011,08,17,09,05,17.50
2011,08,17,09,06,17.60
2011,08,17,09,07,17.70
2011,08,17,09,08,17.70
2011,08,17,09,09,17.80
2011,08,17,09,10,17.80
2011,08,17,09,11,17.90
2011,08,17,09,12,17.90
2011,08,17,09,13,17.90
2011,08,17,09,14,17.90
2011,08,17,09,15,18.00
2011,08,17,09,16,18.10
2011,08,17,09,17,18.10
2011,08,17,09,18,18.20
2011,08,17,09,19,18.20
2011,08,17,09,20,18.20
2011,08,17,09,21,18.20
2011,08,17,09,22,18.30
2011,08,17,09,23,18.30
2011,08,17,09,24,18.40
2011,08,17,09,25,18.50
2011,08,17,09,26,18.60
2011,08,17,09,27,18.60
2011,08,17,09,28,18.70
2011,08,17,09,29,18.90
2011,08,17,09,30,19.00
2011,08,17,09,31,19.10
2011,08,17,09,32,19.10
2011,08,17,09,33,19.00
2011,08,17,09,34,18.90
2011,08,17,09,35,18.90
2011,08,17,09,36,18.90
2011,08,17,09,37,18.90
2011,08,17,09,38,18.90
2011,08,17,09,39,18.90
2011,08,17,09,40,19.00
2011,08,17,09,41,19.10
2011,08,17,09,42,19.10
2011,08,17,09,43,19.30
2011,08,17,09,44,19.40
2011,08,17,09,45,19.50
2011,08,17,09,46,19.60
2011,08,17,09,47,19.60
2011,08,17,09,48,19.50
2011,08,17,09,49,19.50
2011,08,17,09,50,19.50
2011,08,17,09,51,19.50
2011,08,17,09,52,19.50
2011,08,17,09,53,19.40
2011,08,17,09,54,19.50
2011,08,17,09,55,19.50
2011,08,17,09,56,19.60
2011,08,17,09,57,19.60
2011,08,17,09,58,19.60
2011,08,17,09,59,19.70
2011,08,17,10,00,19.70
2011,08,17,10,01,19.80
2011,08,17,10,02,19.80
2011,08,17,10,03,19.90
2011,08,17,10,04,20.00
2011,08,17,10,05,20.10
2011,08,17,10,06,20.20
2011,08,17,10,07,20.20
2011,08,17,10,08,20.20
2011,08,17,10,09,20.20
2011,08,17,10,10,20.20
2011,08,17,10,11,20.20
2011,08,17,10,12,20.20
2011,08,17,10,13,20.20
2011,08,17,10,14,20.20
2011,08,17,10,15,20.20
2011,08,17,10,16,20.10
2011,08,17,10,17,20.10
2011,08,17,10,18,20.20
2011,08,17,10,19,20.20
2011,08,17,10,20,20.20
2011,08,17,10,21,20.20
2011,08,17,10,22,20.30
2011,08,17,10,23,20.30
2011,08,17,10,24,20.30
2011,08,17,10,25,20.30
2011,08,17,10,26,20.40
2011,08,17,10,27,20.50
2011,08,17,10,28,20.50
2011,08,17,10,29,20.60
2011,08,17,10,30,20.60
2011,08,17,10,31,20.60
2011,08,17,10,32,20.60
2011,08,17,10,33,20.70
2011,08,17,10,34,20.70
2011,08,17,10,35,20.80
2011,08,17,10,36,20.70
2011,08,17,10,37,20.70
2011,08,17,10,38,20.60
2011,08,17,10,39,20.60
2011,08,17,10,40,20.50
2011,08,17,10,41,20.50
2011,08,17,10,42,20.50
2011,08,17,10,43,20.60
2011,08,17,10,44,20.60
2011,08,17,10,45,20.70
2011,08,17,10,46,20.80
2011,08,17,10,47,20.80
2011,08,17,10,48,20.80
2011,08,17,10,49,20.80
2011,08,17,10,50,20.80
2011,08,17,10,51,20.80
2011,08,17,10,52,20.70
2011,08,17,10,53,20.50
2011,08,17,10,54,20.40
2011,08,17,10,55,20.30
2011,08,17,10,56,20.30
2011,08,17,10,57,20.20
2011,08,17,10,58,20.20
2011,08,17,10,59,20.20
2011,08,17,11,00,20.30
2011,08,17,11,01,20.40
2011,08,17,11,02,20.50
2011,08,17,11,03,20.60
2011,08,17,11,04,20.70
2011,08,17,11,05,20.80
2011,08,17,11,06,20.80
2011,08,17,11,07,20.80
2011,08,17,11,08,20.80
2011,08,17,11,09,20.60
2011,08,17,11,10,20.50
2011,08,17,11,11,20.40
2011,08,17,11,12,20.40
2011,08,17,11,13,20.50
2011,08,17,11,14,20.50
2011,08,17,11,15,20.40
2011,08,17,11,16,20.40
2011,08,17,11,17,20.40
2011,08,17,11,18,20.50
2011,08,17,11,19,20.60
2011,08,17,11,20,20.70
2011,08,17,11,21,20.90
2011,08,17,11,22,20.90
2011,08,17,11,23,20.90
2011,08,17,11,24,20.80
2011,08,17,11,25,20.80
2011,08,17,11,26,20.70
2011,08,17,11,27,20.70
2011,08,17,11,28,20.60
2011,08,17,11,29,20.60
2011,08,17,11,30,20.30
2011,08,17,11,31,20.20
2011,08,17,11,32,20.20
2011,08,17,11,33,20.20
2011,08,17,11,34,20.20
2011,08,17,11,35,20.30
2011,08,17,11,36,20.40
2011,08,17,11,37,20.50
2011,08,17,11,38,20.70
2011,08,17,11,39,20.80
2011,08,17,11,40,21.00
2011,08,17,11,41,21.00
2011,08,17,11,42,20.90
2011,08,17,11,43,20.80
2011,08,17,11,44,20.70
2011,08,17,11,45,20.70
2011,08,17,11,46,20.70
2011,08,17,11,47,20.60
2011,08,17,11,48,20.50
2011,08,17,11,49,20.40
2011,08,17,11,50,20.50
2011,08,17,11,51,20.50
2011,08,17,11,52,20.60
2011,08,17,11,53,20.60
2011,08,17,11,54,20.60
2011,08,17,11,55,20.50
2011,08,17,11,56,20.40
2011,08,17,11,57,20.40
2011,08,17,11,58,20.40
2011,08,17,11,59,20.20
2011,08,17,12,00,20.20
2011,08,17,12,01,20.20
2011,08,17,12,02,20.10
2011,08,17,12,03,20.10
2011,08,17,12,04,20.20
2011,08,17,12,05,20.20
2011,08,17,12,06,20.20
2011,08,17,12,07,20.20
2011,08,17,12,08,20.20
2011,08,17,12,09,20.30
2011,08,17,12,10,20.40
2011,08,17,12,11,20.50
2011,08,17,12,12,20.50
2011,08,17,12,13,20.60
2011,08,17,12,14,20.60
2011,08,17,12,15,20.60
2011,08,17,12,16,20.70
2011,08,17,12,17,20.80
2011,08,17,12,18,20.80
2011,08,17,12,19,20.80
2011,08,17,12,20,20.90
2011,08,17,12,21,20.90
2011,08,17,12,22,20.90
2011,08,17,12,23,20.80
2011,08,17,12,24,20.90
2011,08,17,12,25,20.90
2011,08,17,12,26,21.00
2011,08,17,12,27,21.10
2011,08,17,12,28,21.10
2011,08,17,12,29,21.00
2011,08,17,12,30,21.00
2011,08,17,12,31,21.10
2011,08,17,12,32,21.20
2011,08,17,12,33,21.20
2011,08,17,12,34,21.20
2011,08,17,12,35,21.10
2011,08,17,12,36,21.00
2011,08,17,12,37,21.00
2011,08,17,12,38,20.90
2011,08,17,12,39,20.90
2011,08,17,12,40,20.80
2011,08,17,12,41,20.90
2011,08,17,12,42,21.00
2011,08,17,12,43,21.10
2011,08,17,12,44,21.10
2011,08,17,12,45,21.30
2011,08,17,12,46,21.30
2011,08,17,12,47,21.40
2011,08,17,12,48,21.50
2011,08,17,12,49,21.60
2011,08,17,12,50,21.70
2011,08,17,12,51,21.80
2011,08,17,12,52,22.00
2011,08,17,12,53,22.10
2011,08,17,12,54,22.10
2011,08,17,12,55,22.00
2011,08,17,12,56,21.90
2011,08,17,12,57,21.80
2011,08,17,12,58,21.80
2011,08,17,12,59,21.80
2011,08,17,13,00,21.80
2011,08,17,13,01,21.90
2011,08,17,13,02,21.90
2011,08,17,13,03,21.80
2011,08,17,13,04,21.80
2011,08,17,13,05,21.80
2011,08,17,13,06,21.90
2011,08,17,13,07,22.00
2011,08,17,13,08,22.10
2011,08,17,13,09,22.20
2011,08,17,13,10,22.30
2011,08,17,13,11,22.20
2011,08,17,13,12,22.30
2011,08,17,13,13,22.30
2011,08,17,13,14,22.40
2011,08,17,13,15,22.50
2011,08,17,13,16,22.50
2011,08,17,13,17,22.50
2011,08,17,13,18,22.60
2011,08,17,13,19,22.70
2011,08,17,13,20,22.80
2011,08,17,13,21,22.70
2011,08,17,13,22,22.60
2011,08,17,13,23,22.50
2011,08,17,13,24,22.50
2011,08,17,13,25,22.50
2011,08,17,13,26,22.50
2011,08,17,13,27,22.60
2011,08,17,13,28,22.60
2011,08,17,13,29,22.60
2011,08,17,13,30,22.70
2011,08,17,13,31,22.70
2011,08,17,13,32,22.70
2011,08,17,13,33,22.80
2011,08,17,13,34,22.80
2011,08,17,13,35,22.80
2011,08,17,13,36,22.70
2011,08,17,13,37,22.70
2011,08,17,13,38,22.60
2011,08,17,13,39,22.60
2011,08,17,13,40,22.60
2011,08,17,13,41,22.50
2011,08,17,13,42,22.50
2011,08,17,13,43,22.60
2011,08,17,13,44,22.60
2011,08,17,13,45,22.60
2011,08,17,13,46,22.60
2011,08,17,13,47,22.60
2011,08,17,13,48,22.60
2011,08,17,13,49,22.60
2011,08,17,13,50,22.60
2011,08,17,13,51,22.70
2011,08,17,13,52,22.70
2011,08,17,13,53,22.70
2011,08,17,13,54,22.80
2011,08,17,13,55,22.70
2011,08,17,13,56,22.60
2011,08,17,13,57,22.60
2011,08,17,13,58,22.50
2011,08,17,13,59,22.50
2011,08,17,14,00,22.50
2011,08,17,14,01,22.50
2011,08,17,14,02,22.40
2011,08,17,14,03,22.50
2011,08,17,14,04,22.50
2011,08,17,14,05,22.60
2011,08,17,14,06,22.60
2011,08,17,14,07,22.60
2011,08,17,14,08,22.70
2011,08,17,14,09,22.70
2011,08,17,14,10,22.70
2011,08,17,14,11,22.80
2011,08,17,14,12,22.80
2011,08,17,14,13,22.80
2011,08,17,14,14,22.70
2011,08,17,14,15,22.70
2011,08,17,14,16,22.70
2011,08,17,14,17,22.70
2011,08,17,14,18,22.70
2011,08,17,14,19,22.80
2011,08,17,14,20,22.90
2011,08,17,14,21,22.90
2011,08,17,14,22,22.90
2011,08,17,14,23,22.90
2011,08,17,14,24,22.70
2011,08,17,14,25,22.60
2011,08,17,14,26,22.60
2011,08,17,14,27,22.50
2011,08,17,14,28,22.50
2011,08,17,14,29,22.30
2011,08,17,14,30,22.30
2011,08,17,14,31,22.20
2011,08,17,14,32,22.20
2011,08,17,14,33,22.10
2011,08,17,14,34,22.10
2011,08,17,14,35,22.10
2011,08,17,14,36,22.20
2011,08,17,14,37,22.20
2011,08,17,14,38,22.20
2011,08,17,14,39,22.20
2011,08,17,14,40,22.30
2011,08,17,14,41,22.30
2011,08,17,14,42,22.30
2011,08,17,14,43,22.40
2011,08,17,14,44,22.40
2011,08,17,14,45,22.40
2011,08,17,14,46,22.40
2011,08,17,14,47,22.40
2011,08,17,14,48,22.50
2011,08,17,14,49,22.50
2011,08,17,14,50,22.60
2011,08,17,14,51,22.70
2011,08,17,14,52,22.70
2011,08,17,14,53,22.70
2011,08,17,14,54,22.70
2011,08,17,14,55,22.70
2011,08,17,14,56,22.70
2011,08,17,14,57,22.70
2011,08,17,14,58,22.70
2011,08,17,14,59,22.70
2011,08,17,15,00,22.80
2011,08,17,15,01,22.80
2011,08,17,15,02,22.90
2011,08,17,15,03,23.10
2011,08,17,15,04,23.20
2011,08,17,15,05,23.20
2011,08,17,15,06,23.20
2011,08,17,15,07,23.20
2011,08,17,15,08,23.20
2011,08,17,15,09,23.20
2011,08,17,15,10,23.30
2011,08,17,15,11,23.30
2011,08,17,15,12,23.30
2011,08,17,15,13,23.30
2011,08,17,15,14,23.30
2011,08,17,15,15,23.30
2011,08,17,15,16,23.30
2011,08,17,15,17,23.30
2011,08,17,15,18,23.40
2011,08,17,15,19,23.40
2011,08,17,15,20,23.40
2011,08,17,15,21,23.40
2011,08,17,15,22,23.40
2011,08,17,15,23,23.30
2011,08,17,15,24,23.30
2011,08,17,15,25,23.30
2011,08,17,15,26,23.30
2011,08,17,15,27,23.30
2011,08,17,15,28,23.30
2011,08,17,15,29,23.30
2011,08,17,15,30,23.30
2011,08,17,15,31,23.30
2011,08,17,15,32,23.30
2011,08,17,15,33,23.30
2011,08,17,15,34,23.40
2011,08,17,15,35,23.50
2011,08,17,15,36,23.60
2011,08,17,15,37,23.70
2011,08,17,15,38,23.70
2011,08,17,15,39,23.70
2011,08,17,15,40,23.70
2011,08,17,15,41,23.70
2011,08,17,15,42,23.70
2011,08,17,15,43,23.80
2011,08,17,15,44,23.80
2011,08,17,15,45,23.80
2011,08,17,15,46,23.80
2011,08,17,15,47,23.80
2011,08,17,15,48,23.80
2011,08,17,15,49,23.80
2011,08,17,15,50,23.70
2011,08,17,15,51,23.70
2011,08,17,15,52,23.80
2011,08,17,15,53,23.80
2011,08,17,15,54,23.80
2011,08,17,15,55,23.90
2011,08,17,15,56,23.90
2011,08,17,15,57,23.90
2011,08,17,15,58,23.90
2011,08,17,15,59,24.00
2011,08,17,16,00,24.00
2011,08,17,16,01,23.90
2011,08,17,16,02,24.00
2011,08,17,16,03,24.10
2011,08,17,16,04,24.10
2011,08,17,16,05,24.20
2011,08,17,16,06,24.30
2011,08,17,16,07,24.30
2011,08,17,16,08,24.40
2011,08,17,16,09,24.50
2011,08,17,16,10,24.50
2011,08,17,16,11,24.60
2011,08,17,16,12,24.50
2011,08,17,16,13,24.50
2011,08,17,16,14,24.60
2011,08,17,16,15,24.70
2011,08,17,16,16,24.70
2011,08,17,16,17,24.60
2011,08,17,16,18,24.60
2011,08,17,16,19,24.50
2011,08,17,16,20,24.50
2011,08,17,16,21,24.40
2011,08,17,16,22,24.40
2011,08,17,16,23,24.30
2011,08,17,16,24,24.30
2011,08,17,16,25,24.20
2011,08,17,16,26,24.10
2011,08,17,16,27,24.10
2011,08,17,16,28,24.10
2011,08,17,16,29,24.10
2011,08,17,16,30,24.10
2011,08,17,16,31,24.10
2011,08,17,16,32,24.10
2011,08,17,16,33,24.10
2011,08,17,16,34,24.10
2011,08,17,16,35,24.20
2011,08,17,16,36,24.30
2011,08,17,16,37,24.30
2011,08,17,16,38,24.40
2011,08,17,16,39,24.40
2011,08,17,16,40,24.40
2011,08,17,16,41,24.40
2011,08,17,16,42,24.50
2011,08,17,16,43,24.50
2011,08,17,16,44,24.60
2011,08,17,16,45,24.70
2011,08,17,16,46,24.70
2011,08,17,16,47,24.80
2011,08,17,16,48,24.90
2011,08,17,16,49,24.90
2011,08,17,16,50,25.00
2011,08,17,16,51,25.00
2011,08,17,16,52,25.00
2011,08,17,16,53,25.10
2011,08,17,16,54,25.10
2011,08,17,16,55,25.20
2011,08,17,16,56,25.20
2011,08,17,16,57,25.20
2011,08,17,16,58,25.20
2011,08,17,16,59,25.20
2011,08,17,17,00,25.20
2011,08,17,17,01,25.10
2011,08,17,17,02,25.10
2011,08,17,17,03,25.10
2011,08,17,17,04,25.10
2011,08,17,17,05,25.00
2011,08,17,17,06,24.90
2011,08,17,17,07,24.80
2011,08,17,17,08,24.80
2011,08,17,17,09,24.70
2011,08,17,17,10,24.70
2011,08,17,17,11,24.70
2011,08,17,17,12,24.70
2011,08,17,17,13,24.80
2011,08,17,17,14,24.80
2011,08,17,17,15,24.80
2011,08,17,17,16,24.90
2011,08,17,17,17,24.90
2011,08,17,17,18,24.90
2011,08,17,17,19,24.90
2011,08,17,17,20,24.90
2011,08,17,17,21,24.90
2011,08,17,17,22,24.80
2011,08,17,17,23,24.70
2011,08,17,17,24,24.50
2011,08,17,17,25,24.40
2011,08,17,17,26,24.20
2011,08,17,17,27,24.10
2011,08,17,17,28,24.10
2011,08,17,17,29,24.10
2011,08,17,17,30,24.10
2011,08,17,17,31,24.10
2011,08,17,17,32,24.00
2011,08,17,17,33,23.90
2011,08,17,17,34,23.80
2011,08,17,17,35,23.70
2011,08,17,17,36,23.60
2011,08,17,17,37,23.60
2011,08,17,17,38,23.60